Location: Sternwarte-Kraichtal
(49.1689°N, 8.6996°E)
Time: 02:49:20
(UTC+01:00)

ISS - Visible Passes

Search period start: 05 March 2024 00:00
Search period end: 15 March 2024 00:00
Orbit: 414 x 422 km, 51.6° (Epoch: 04 March)

Date Brightness Start Highest point End Pass type
(mag) Time Alt. Az. Time Alt. Az. Time Alt. Az.
05 Mar -0.4 03:50:50 11° E 03:50:50 11° E 03:50:57 10° E visible
05 Mar -3.4 05:23:46 41° WSW 05:24:20 46° SSW 05:27:35 10° SE visible
06 Mar -2.1 04:37:55 28° SE 04:37:55 28° SE 04:39:42 10° ESE visible
06 Mar -1.8 06:10:52 11° WSW 06:12:37 15° SW 06:14:35 10° S visible
07 Mar -2.2 05:25:08 21° SSW 05:25:08 21° SSW 05:27:24 10° SSE visible
08 Mar -1.0 04:39:31 12° SSE 04:39:31 12° SSE 04:39:49 10° SSE visible
13 Mar -1.3 20:31:02 10° SSW 20:31:37 14° SSW 20:31:37 14° SSW visible
14 Mar -2.3 19:43:19 10° S 19:45:53 20° SE 19:46:05 20° SE visible
14 Mar -0.6 21:18:56 10° WSW 21:19:02 11° WSW 21:19:02 11° WSW visible
